Location: Unspecified
(0.0000°N, 0.0000°E)
Time: 20:59:27
(UTC+00:00)

Vanguard 1 Rocket - All Passes

Search period start: 19 April 2018 00:00
Search period end: 29 April 2018 00:00
Orbit: 655 x 4223 km, 34.3° (Epoch: 18 April)

Date Brightness Start Highest point End Pass type
(mag) Time Alt. Az. Time Alt. Az. Time Alt. Az.
19 Apr - 00:29:08 10° SSW 00:47:34 29° SSE 01:08:18 10° E visible
19 Apr - 02:58:10 10° SW 03:24:09 64° SE 03:44:38 10° ENE visible
19 Apr - 05:31:55 10° WSW 05:56:42 59° NW 06:11:43 10° NE visible
19 Apr - 08:16:52 10° WNW 08:26:29 17° NW 08:33:29 10° N daylight
19 Apr - 15:50:26 10° NW 15:54:47 50° NE 16:00:55 10° ESE daylight
19 Apr - 18:15:49 10° WSW 18:20:59 26° SSW 18:29:04 10° SSE visible
19 Apr - 20:47:17 10° SSW 20:52:38 13° S 20:59:27 10° SSE visible
19 Apr - 23:16:52 10° SSW 23:30:22 21° SSE 23:47:26 10° ESE visible
20 Apr - 01:44:39 10° SW 02:08:01 48° SE 02:30:16 10° ENE visible
20 Apr - 04:15:34 10° SW 04:42:20 82° NW 05:00:27 10° NE visible
20 Apr - 06:54:50 10° W 07:13:08 31° NW 07:24:42 10° NNE daylight
20 Apr - 14:41:05 10° N 14:44:10 18° NE 14:47:31 10° E daylight
20 Apr - 17:04:21 10° W 17:09:05 41° SSW 17:16:33 10° SE daylight
20 Apr - 19:33:50 10° SW 19:38:12 14° S 19:43:53 10° SSE visible
20 Apr - 22:05:04 10° SSW 22:13:29 15° SSE 22:24:15 10° SE visible
21 Apr - 00:32:02 10° SSW 00:51:30 35° SSE 01:13:31 10° E visible
21 Apr - 03:00:48 10° SW 03:27:04 76° SE 03:48:05 10° ENE visible
21 Apr - 05:35:34 10° WSW 05:59:26 49° NW 06:14:32 10° NNE visible
21 Apr - 08:23:59 10° NW 08:30:16 13° NNW 08:35:20 10° N daylight
21 Apr - 15:53:37 10° NW 15:58:03 89° NE 16:04:18 10° SE daylight
21 Apr - 18:20:44 10° WSW 18:25:00 17° SSW 18:30:54 10° SSE visible
21 Apr - 20:53:37 10° SSW 20:57:29 11° S 21:01:59 10° SSE visible
21 Apr - 23:20:09 10° SSW 23:34:51 24° SSE 23:53:34 10° ESE visible
22 Apr - 01:47:17 10° SW 02:11:10 57° SE 02:34:13 10° ENE visible
22 Apr - 04:18:38 10° WSW 04:45:02 70° NW 05:03:26 10° NE visible
22 Apr - 07:00:06 10° W 07:16:23 25° NW 07:27:18 10° NNE daylight
22 Apr - 14:43:30 10° NNW 14:47:28 32° NE 14:51:52 10° E daylight
22 Apr - 17:08:31 10° W 17:12:47 26° SSW 17:18:56 10° SSE daylight
22 Apr - 19:42:01 10° S 19:42:43 10° S 19:43:27 10° S visible
22 Apr - 22:09:00 10° SSW 22:18:20 16° SSE 22:30:25 10° SE visible
23 Apr - 00:34:47 10° SSW 00:55:02 41° SE 01:18:14 10° E visible
23 Apr - 03:03:34 10° SW 03:29:50 88° SE 03:51:18 10° NE visible
23 Apr - 05:39:40 10° WSW 06:02:18 40° NW 06:17:17 10° NNE visible
23 Apr - 08:33:49 10° NNW 08:34:24 10° NNW 08:34:58 10° NNW daylight
23 Apr - 13:34:30 10° N 13:36:28 12° NNE 13:38:21 10° NE daylight
23 Apr - 15:57:08 10° WNW 16:01:27 51° SSW 16:07:19 10° SE daylight
23 Apr - 18:26:57 10° SSW 18:29:10 11° SSW 18:31:43 10° S visible
23 Apr - 20:59:30 10° S 21:02:23 11° SSE 21:05:35 10° SSE visible
23 Apr - 23:23:07 10° SSW 23:38:54 29° SSE 23:59:19 10° E visible
24 Apr - 01:49:57 10° SW 02:14:04 67° SE 02:37:49 10° ENE visible
24 Apr - 04:22:00 10° WSW 04:47:43 59° NW 05:06:17 10° NE visible
24 Apr - 07:06:02 10° WNW 07:19:59 20° NNW 07:29:52 10° N daylight
24 Apr - 14:46:23 10° NW 14:50:46 59° NE 14:55:37 10° ESE daylight
24 Apr - 17:13:20 10° WSW 17:16:37 16° SSW 17:20:49 10° SSE daylight
24 Apr - 22:12:19 10° SSW 22:22:53 19° SSE 22:36:58 10° ESE visible
25 Apr - 00:37:28 10° SW 00:58:13 49° SE 01:22:29 10° ENE visible
25 Apr - 03:06:32 10° SW 03:32:29 80° NW 03:54:18 10° NE visible
25 Apr - 05:44:19 10° W 06:05:26 33° NW 06:19:58 10° NNE daylight
25 Apr - 13:36:11 10° NNW 13:39:59 22° NNE 13:43:29 10° E daylight
25 Apr - 16:01:04 10° W 16:04:58 29° SSW 16:09:58 10° SSE daylight
25 Apr - 21:03:27 10° S 21:07:12 11° SSE 21:11:28 10° SSE visible
25 Apr - 23:25:55 10° SSW 23:42:32 34° SE 00:04:34 10° E visible
26 Apr - 01:52:43 10° SW 02:16:48 78° SE 02:41:07 10° ENE visible
26 Apr - 04:25:44 10° WSW 04:50:31 50° NW 05:09:02 10° NNE visible
26 Apr - 07:12:35 10° WNW 07:23:57 17° NNW 07:32:29 10° N daylight
26 Apr - 12:27:15 10° N 12:28:28 11° NNE 12:29:35 10° NE daylight
26 Apr - 14:49:38 10° WNW 14:54:06 73° SW 14:58:57 10° SE daylight
26 Apr - 22:15:15 10° SSW 22:27:04 22° SSE 22:43:21 10° ESE visible
27 Apr - 00:40:11 10° SW 01:01:08 58° SE 01:26:18 10° ENE visible
27 Apr - 03:09:43 10° WSW 03:35:09 69° NW 03:57:10 10° NE visible
27 Apr - 05:49:33 10° W 06:08:52 28° NNW 06:22:41 10° NNE daylight
27 Apr - 13:38:42 10° NW 13:43:27 40° NE 13:47:36 10° ESE daylight
27 Apr - 16:05:38 10° WSW 16:08:36 17° SSW 16:12:05 10° SSE daylight
27 Apr - 21:06:14 10° S 21:11:48 13° SSE 21:18:39 10° SE visible
27 Apr - 23:28:38 10° SSW 23:45:48 41° SE 00:09:14 10° E visible
28 Apr - 01:55:38 10° SW 02:19:27 90° NW 02:44:11 10° NE visible
28 Apr - 04:29:54 10° W 04:53:32 41° NW 05:11:45 10° NNE visible
28 Apr - 07:19:30 10° NW 07:28:19 14° NNW 07:35:17 10° N daylight
28 Apr - 12:28:06 10° NNW 12:32:15 19° NNE 12:35:35 10° ENE daylight
28 Apr - 14:53:17 10° WNW 14:57:28 38° SW 15:01:55 10° SE daylight
28 Apr - 22:18:00 10° SSW 22:30:50 27° SE 22:49:14 10° E visible
